QPF
0.00 0.00 0.00 0.00 0.00 0.00 0.00 0.00 0.00 0.01 0.02 0.02 0.03 0.04 0.04 0.04 0.06 0.07 0.06 0.04 0.04 0.04 0.03 0.02 0.02 0.03 0.03 0.04 0.05 0.06 0.06 0.06 0.05 0.06 0.08 0.11 0.15 0.20 0.23 0.20 0.16 0.12 0.08
0.00 0.00 0.00 0.00 0.00 0.00 0.00 0.00 0.00 0.00 0.01 0.02 0.02 0.03 0.04 0.04 0.05 0.07 0.06 0.05 0.04 0.05 0.04 0.02 0.02 0.02 0.02 0.03 0.04 0.04 0.05 0.05 0.05 0.06 0.08 0.09 0.09 0.12 0.17 0.22 0.20 0.14 0.10
0.00 0.00 0.00 0.00 0.00 0.00 0.00 0.00 0.00 0.00 0.01 0.02 0.01 0.03 0.04 0.04 0.04 0.04 0.05 0.04 0.03 0.02 0.02 0.02 0.02 0.02 0.02 0.02 0.03 0.04 0.04 0.06 0.06 0.06 0.07 0.07 0.09 0.10 0.11 0.15 0.17 0.17 0.14
0.00 0.00 0.00 0.00 0.00 0.00 0.00 0.00 0.00 0.00 0.00 0.01 0.01 0.01 0.02 0.03 0.03 0.03 0.05 0.04 0.02 0.02 0.02 0.02 0.02 0.01 0.01 0.02 0.02 0.03 0.05 0.07 0.07 0.06 0.05 0.07 0.09 0.11 0.10 0.10 0.12 0.12 0.14
0.00 0.00 0.00 0.00 0.00 0.00 0.00 0.00 0.00 0.00 0.00 0.00 0.00 0.01 0.01 0.02 0.02 0.03 0.03 0.03 0.02 0.03 0.03 0.02 0.03 0.02 0.02 0.02 0.03 0.03 0.05 0.06 0.06 0.05 0.04 0.06 0.07 0.09 0.09 0.08 0.08 0.10 0.12
0.00 0.00 0.00 0.00 0.00 0.00 0.00 0.00 0.00 0.00 0.00 0.00 0.00 0.00 0.01 0.02 0.03 0.04 0.03 0.03 0.03 0.03 0.03 0.03 0.04 0.03 0.03 0.03 0.03 0.03 0.04 0.04 0.04 0.04 0.04 0.05 0.04 0.06 0.08 0.09 0.09 0.10 0.09
0.00 0.00 0.00 0.00 0.00 0.00 0.00 0.00 0.00 0.00 0.00 0.00 0.00 0.00 0.00 0.01 0.02 0.02 0.04 0.03 0.03 0.02 0.02 0.03 0.04 0.04 0.04 0.02 0.02 0.04 0.04 0.04 0.05 0.04 0.03 0.04 0.05 0.05 0.06 0.08 0.07 0.07 0.05
0.00 0.00 0.00 0.00 0.00 0.00 0.00 0.00 0.00 0.00 0.00 0.00 0.00 0.00 0.00 0.00 0.00 0.01 0.02 0.02 0.03 0.03 0.02 0.02 0.03 0.03 0.03 0.03 0.03 0.03 0.02 0.02 0.02 0.03 0.03 0.04 0.05 0.06 0.07 0.08 0.10 0.10 0.09
0.00 0.00 0.00 0.00 0.00 0.00 0.00 0.00 0.00 0.00 0.00 0.00 0.00 0.00 0.00 0.00 0.00 0.00 0.00 0.01 0.01 0.02 0.02 0.02 0.01 0.01 0.02 0.03 0.03 0.03 0.03 0.02 0.02 0.02 0.02 0.03 0.04 0.06 0.06 0.08 0.10 0.09 0.07
0.00 0.00 0.00 0.00 0.00 0.00 0.00 0.00 0.00 0.00 0.00 0.00 0.00 0.00 0.00 0.00 0.00 0.00 0.00 0.01 0.00 0.01 0.01 0.01 0.01 0.01 0.02 0.02 0.03 0.04 0.03 0.03 0.03 0.02 0.02 0.02 0.02 0.04 0.06 0.06 0.08 0.09 0.07
0.00 0.00 0.00 0.00 0.00 0.00 0.00 0.00 0.00 0.00 0.00 0.00 0.00 0.00 0.00 0.00 0.00 0.00 0.00 0.01 0.01 0.01 0.01 0.00 0.00 0.01 0.01 0.01 0.02 0.03 0.04 0.05 0.06 0.05 0.03 0.03 0.03 0.03 0.04 0.05 0.06 0.07 0.07
0.00 0.00 0.00 0.00 0.00 0.00 0.00 0.00 0.00 0.00 0.00 0.00 0.00 0.00 0.00 0.00 0.00 0.00 0.00 0.01 0.01 0.01 0.00 0.00 0.00 0.01 0.02 0.01 0.02 0.03 0.04 0.04 0.04 0.05 0.04 0.03 0.04 0.03 0.03 0.04 0.06 0.07 0.07
0.00 0.00 0.00 0.00 0.00 0.00 0.00 0.00 0.00 0.00 0.00 0.00 0.00 0.00 0.00 0.00 0.00 0.01 0.01 0.01 0.00 0.00 0.00 0.00 0.01 0.02 0.02 0.02 0.02 0.02 0.03 0.02 0.02 0.04 0.04 0.04 0.05 0.06 0.05 0.05 0.07 0.09 0.11
0.00 0.00 0.00 0.00 0.00 0.00 0.00 0.00 0.00 0.00 0.00 0.00 0.00 0.00 0.00 0.00 0.00 0.01 0.01 0.01 0.01 0.00 0.00 0.00 0.01 0.02 0.02 0.01 0.01 0.01 0.02 0.02 0.02 0.02 0.03 0.04 0.04 0.05 0.06 0.06 0.07 0.08 0.09
0.00 0.00 0.00 0.00 0.00 0.00 0.00 0.00 0.00 0.00 0.00 0.00 0.00 0.00 0.00 0.00 0.00 0.00 0.01 0.01 0.01 0.00 0.00 0.00 0.00 0.01 0.01 0.01 0.01 0.01 0.02 0.03 0.03 0.02 0.02 0.03 0.04 0.06 0.05 0.05 0.05 0.07 0.08
0.00 0.00 0.00 0.00 0.00 0.00 0.00 0.00 0.00 0.00 0.00 0.00 0.00 0.00 0.00 0.00 0.00 0.00 0.00 0.00 0.00 0.00 0.00 0.00 0.00 0.00 0.00 0.00 0.00 0.01 0.01 0.02 0.03 0.03 0.03 0.04 0.04 0.05 0.07 0.07 0.07 0.07 0.08
0.00 0.00 0.00 0.00 0.00 0.00 0.00 0.00 0.00 0.00 0.00 0.00 0.00 0.00 0.00 0.00 0.00 0.00 0.00 0.00 0.00 0.00 0.00 0.00 0.00 0.00 0.00 0.00 0.00 0.01 0.01 0.01 0.02 0.03 0.03 0.04 0.04 0.04 0.06 0.07 0.08 0.10 0.11
0.00 0.00 0.00 0.00 0.00 0.00 0.00 0.00 0.00 0.00 0.00 0.00 0.00 0.00 0.00 0.00 0.00 0.00 0.00 0.00 0.00 0.00 0.00 0.00 0.00 0.00 0.00 0.00 0.00 0.00 0.00 0.01 0.01 0.01 0.02 0.03 0.04 0.05 0.05 0.05 0.05 0.06 0.08
0.00 0.00 0.00 0.00 0.00 0.00 0.00 0.00 0.00 0.00 0.00 0.00 0.00 0.00 0.00 0.00 0.00 0.00 0.00 0.00 0.00 0.01 0.00 0.00 0.00 0.01 0.01 0.00 0.00 0.00 0.01 0.01 0.01 0.01 0.01 0.02 0.02 0.03 0.04 0.04 0.04 0.06 0.06
0.00 0.00 0.00 0.00 0.00 0.00 0.00 0.00 0.00 0.00 0.00 0.00 0.00 0.00 0.00 0.00 0.00 0.00 0.00 0.00 0.00 0.00 0.00 0.00 0.00 0.01 0.01 0.01 0.01 0.01 0.01 0.01 0.01 0.01 0.02 0.02 0.02 0.02 0.02 0.02 0.03 0.04 0.04
0.00 0.00 0.00 0.00 0.00 0.00 0.00 0.00 0.00 0.00 0.00 0.00 0.00 0.00 0.00 0.00 0.00 0.00 0.00 0.00 0.00 0.00 0.00 0.00 0.00 0.01 0.01 0.01 0.01 0.01 0.01 0.01 0.01 0.01 0.02 0.02 0.02 0.02 0.02 0.02 0.02 0.03 0.04
0.00 0.00 0.00 0.00 0.00 0.00 0.00 0.00 0.00 0.00 0.00 0.00 0.00 0.00 0.00 0.00 0.00 0.00 0.00 0.00 0.00 0.00 0.00 0.01 0.01 0.01 0.01 0.02 0.02 0.02 0.02 0.02 0.02 0.02 0.02 0.02 0.02 0.02 0.03 0.03 0.03 0.02 0.03
0.00 0.00 0.00 0.00 0.00 0.00 0.00 0.00 0.00 0.00 0.00 0.00 0.00 0.00 0.00 0.00 0.00 0.00 0.00 0.00 0.00 0.00 0.00 0.01 0.01 0.01 0.02 0.02 0.03 0.04 0.04 0.04 0.04 0.04 0.03 0.03 0.03 0.03 0.03 0.03 0.03 0.03 0.04
0.00 0.00 0.00 0.00 0.00 0.00 0.00 0.00 0.00 0.00 0.00 0.00 0.00 0.00 0.00 0.00 0.00 0.00 0.00 0.00 0.00 0.00 0.01 0.01 0.01 0.01 0.02 0.02 0.04 0.05 0.06 0.06 0.05 0.05 0.05 0.05 0.04 0.04 0.04 0.04 0.04 0.04 0.05
0.00 0.00 0.00 0.00 0.00 0.00 0.00 0.00 0.00 0.00 0.00 0.00 0.00 0.00 0.00 0.00 0.00 0.00 0.00 0.01 0.01 0.01 0.01 0.02 0.02 0.02 0.02 0.03 0.04 0.05 0.07 0.07 0.07 0.07 0.06 0.06 0.05 0.05 0.06 0.05 0.05 0.05 0.05
0.00 0.00 0.00 0.00 0.00 0.00 0.00 0.00 0.00 0.00 0.00 0.00 0.00 0.00 0.00 0.00 0.00 0.00 0.01 0.01 0.01 0.01 0.01 0.02 0.02 0.02 0.03 0.03 0.04 0.04 0.05 0.06 0.06 0.06 0.06 0.06 0.06 0.06 0.07 0.07 0.07 0.07 0.07
MSLP
1013.28 1013.42 1013.58 1013.71 1013.79 1013.78 1013.66 1013.46 1013.20 1012.90 1012.60 1012.30 1012.04 1011.80 1011.57 1011.36 1011.14 1010.91 1010.69 1010.47 1010.27 1010.12 1010.02 1009.97 1009.98 1010.04 1010.13 1010.24 1010.34 1010.44 1010.50 1010.54 1010.55 1010.53 1010.48 1010.43 1010.38 1010.36 1010.38 1010.47 1010.63 1010.89 1011.23
1013.31 1013.43 1013.57 1013.69 1013.75 1013.73 1013.61 1013.41 1013.15 1012.84 1012.52 1012.21 1011.91 1011.62 1011.35 1011.08 1010.81 1010.53 1010.25 1009.98 1009.73 1009.52 1009.36 1009.27 1009.24 1009.27 1009.36 1009.49 1009.64 1009.80 1009.95 1010.08 1010.18 1010.25 1010.28 1010.29 1010.29 1010.29 1010.32 1010.39 1010.54 1010.75 1011.05
1013.38 1013.50 1013.62 1013.71 1013.74 1013.69 1013.56 1013.35 1013.07 1012.76 1012.43 1012.09 1011.77 1011.46 1011.15 1010.83 1010.52 1010.19 1009.86 1009.53 1009.23 1008.96 1008.75 1008.61 1008.54 1008.54 1008.62 1008.75 1008.93 1009.14 1009.35 1009.56 1009.74 1009.89 1010.01 1010.09 1010.14 1010.19 1010.25 1010.33 1010.47 1010.66 1010.92
1013.47 1013.58 1013.68 1013.74 1013.74 1013.66 1013.50 1013.27 1012.98 1012.66 1012.33 1011.99 1011.65 1011.32 1010.98 1010.65 1010.29 1009.92 1009.55 1009.18 1008.82 1008.50 1008.24 1008.05 1007.93 1007.90 1007.94 1008.06 1008.24 1008.46 1008.70 1008.95 1009.19 1009.40 1009.59 1009.74 1009.86 1009.97 1010.08 1010.19 1010.34 1010.54 1010.78
1013.54 1013.65 1013.73 1013.76 1013.72 1013.61 1013.42 1013.17 1012.88 1012.57 1012.24 1011.90 1011.57 1011.24 1010.90 1010.54 1010.17 1009.77 1009.36 1008.95 1008.55 1008.18 1007.87 1007.62 1007.45 1007.36 1007.36 1007.43 1007.57 1007.76 1007.99 1008.24 1008.50 1008.75 1008.98 1009.19 1009.38 1009.55 1009.72 1009.90 1010.09 1010.31 1010.56
1013.55 1013.66 1013.72 1013.72 1013.65 1013.51 1013.31 1013.06 1012.77 1012.48 1012.17 1011.87 1011.56 1011.24 1010.90 1010.54 1010.15 1009.74 1009.30 1008.86 1008.42 1008.02 1007.66 1007.36 1007.12 1006.97 1006.89 1006.89 1006.95 1007.07 1007.24 1007.45 1007.68 1007.92 1008.17 1008.42 1008.67 1008.91 1009.15 1009.40 1009.66 1009.93 1010.22
1013.46 1013.57 1013.62 1013.60 1013.51 1013.36 1013.15 1012.91 1012.66 1012.39 1012.13 1011.87 1011.60 1011.31 1010.99 1010.64 1010.25 1009.82 1009.37 1008.91 1008.45 1008.01 1007.61 1007.26 1006.96 1006.73 1006.56 1006.46 1006.42 1006.43 1006.50 1006.62 1006.79 1006.99 1007.22 1007.49 1007.77 1008.08 1008.39 1008.73 1009.06 1009.41 1009.76
1013.27 1013.38 1013.42 1013.38 1013.28 1013.13 1012.94 1012.74 1012.52 1012.31 1012.11 1011.90 1011.67 1011.42 1011.13 1010.79 1010.41 1009.99 1009.54 1009.07 1008.60 1008.15 1007.72 1007.33 1006.98 1006.67 1006.41 1006.19 1006.02 1005.91 1005.85 1005.85 1005.92 1006.05 1006.24 1006.49 1006.80 1007.15 1007.53 1007.94 1008.36 1008.78 1009.21
1012.98 1013.08 1013.10 1013.06 1012.97 1012.83 1012.67 1012.51 1012.35 1012.20 1012.06 1011.90 1011.73 1011.51 1011.26 1010.94 1010.58 1010.18 1009.74 1009.29 1008.84 1008.39 1007.96 1007.54 1007.15 1006.78 1006.43 1006.11 1005.82 1005.57 1005.38 1005.25 1005.20 1005.23 1005.36 1005.58 1005.88 1006.26 1006.68 1007.15 1007.64 1008.13 1008.61
1012.60 1012.69 1012.70 1012.66 1012.58 1012.46 1012.34 1012.23 1012.12 1012.03 1011.94 1011.84 1011.71 1011.53 1011.30 1011.02 1010.69 1010.32 1009.92 1009.51 1009.09 1008.67 1008.26 1007.86 1007.45 1007.04 1006.63 1006.22 1005.82 1005.45 1005.13 1004.88 1004.72 1004.66 1004.71 1004.88 1005.16 1005.53 1005.97 1006.46 1006.99 1007.52 1008.04
1012.19 1012.25 1012.25 1012.20 1012.13 1012.03 1011.95 1011.87 1011.82 1011.77 1011.72 1011.65 1011.55 1011.41 1011.21 1010.96 1010.67 1010.35 1010.01 1009.65 1009.30 1008.94 1008.58 1008.21 1007.82 1007.40 1006.96 1006.49 1006.01 1005.55 1005.13 1004.78 1004.52 1004.38 1004.36 1004.48 1004.71 1005.06 1005.48 1005.97 1006.49 1007.02 1007.54
1011.78 1011.81 1011.79 1011.73 1011.65 1011.57 1011.50 1011.45 1011.42 1011.39 1011.37 1011.32 1011.23 1011.10 1010.93 1010.72 1010.47 1010.21 1009.94 1009.66 1009.39 1009.12 1008.84 1008.53 1008.18 1007.78 1007.33 1006.84 1006.33 1005.81 1005.33 1004.91 1004.59 1004.38 1004.31 1004.38 1004.57 1004.87 1005.25 1005.70 1006.18 1006.67 1007.16
1011.43 1011.41 1011.36 1011.27 1011.18 1011.10 1011.03 1010.98 1010.94 1010.92 1010.88 1010.82 1010.74 1010.61 1010.46 1010.27 1010.08 1009.88 1009.69 1009.51 1009.33 1009.16 1008.96 1008.73 1008.44 1008.08 1007.66 1007.18 1006.66 1006.13 1005.63 1005.18 1004.83 1004.60 1004.49 1004.52 1004.67 1004.93 1005.26 1005.64 1006.05 1006.47 1006.89
1011.17 1011.10 1011.00 1010.88 1010.76 1010.65 1010.56 1010.49 1010.43 1010.37 1010.30 1010.21 1010.10 1009.97 1009.82 1009.66 1009.51 1009.38 1009.27 1009.18 1009.10 1009.02 1008.91 1008.76 1008.53 1008.23 1007.85 1007.40 1006.90 1006.40 1005.91 1005.48 1005.14 1004.91 1004.80 1004.82 1004.94 1005.15 1005.42 1005.74 1006.07 1006.40 1006.73
1011.02 1010.90 1010.75 1010.59 1010.43 1010.28 1010.15 1010.04 1009.92 1009.81 1009.69 1009.56 1009.41 1009.26 1009.10 1008.97 1008.85 1008.78 1008.74 1008.73 1008.73 1008.73 1008.69 1008.60 1008.44 1008.18 1007.85 1007.44 1006.99 1006.52 1006.08 1005.69 1005.39 1005.20 1005.12 1005.14 1005.26 1005.45 1005.67 1005.92 1006.18 1006.43 1006.66
1011.00 1010.82 1010.63 1010.43 1010.23 1010.04 1009.86 1009.69 1009.52 1009.35 1009.17 1008.98 1008.78 1008.60 1008.43 1008.30 1008.21 1008.18 1008.18 1008.23 1008.29 1008.34 1008.35 1008.30 1008.17 1007.96 1007.66 1007.29 1006.88 1006.47 1006.09 1005.76 1005.53 1005.39 1005.35 1005.41 1005.53 1005.71 1005.91 1006.11 1006.31 1006.48 1006.64
1011.11 1010.89 1010.66 1010.43 1010.20 1009.98 1009.76 1009.53 1009.30 1009.07 1008.82 1008.58 1008.34 1008.12 1007.93 1007.80 1007.72 1007.70 1007.73 1007.80 1007.89 1007.96 1007.99 1007.95 1007.83 1007.63 1007.35 1007.01 1006.64 1006.28 1005.96 1005.70 1005.53 1005.45 1005.46 1005.55 1005.70 1005.88 1006.06 1006.24 1006.39 1006.52 1006.63
1011.33 1011.09 1010.85 1010.61 1010.36 1010.12 1009.87 1009.61 1009.33 1009.05 1008.75 1008.46 1008.18 1007.92 1007.72 1007.57 1007.49 1007.47 1007.50 1007.57 1007.65 1007.71 1007.72 1007.67 1007.54 1007.33 1007.05 1006.72 1006.38 1006.06 1005.78 1005.57 1005.45 1005.42 1005.47 1005.58 1005.74 1005.92 1006.09 1006.25 1006.38 1006.48 1006.56
1011.64 1011.41 1011.18 1010.95 1010.72 1010.48 1010.22 1009.95 1009.65 1009.34 1009.01 1008.68 1008.37 1008.09 1007.86 1007.69 1007.59 1007.56 1007.57 1007.61 1007.66 1007.69 1007.66 1007.57 1007.41 1007.17 1006.88 1006.55 1006.22 1005.91 1005.66 1005.47 1005.38 1005.36 1005.42 1005.53 1005.68 1005.84 1005.98 1006.11 1006.22 1006.31 1006.39
1012.03 1011.84 1011.64 1011.45 1011.25 1011.03 1010.80 1010.54 1010.24 1009.92 1009.58 1009.24 1008.91 1008.61 1008.37 1008.18 1008.06 1007.99 1007.97 1007.97 1007.97 1007.95 1007.87 1007.73 1007.52 1007.25 1006.94 1006.59 1006.25 1005.94 1005.68 1005.50 1005.39 1005.35 1005.37 1005.44 1005.54 1005.64 1005.74 1005.82 1005.90 1005.96 1006.04
1012.47 1012.32 1012.18 1012.05 1011.90 1011.74 1011.55 1011.32 1011.05 1010.74 1010.41 1010.07 1009.74 1009.44 1009.18 1008.97 1008.82 1008.73 1008.66 1008.62 1008.57 1008.48 1008.35 1008.16 1007.91 1007.60 1007.26 1006.89 1006.53 1006.20 1005.92 1005.69 1005.53 1005.43 1005.38 1005.36 1005.36 1005.37 1005.37 1005.38 1005.39 1005.42 1005.48
1012.91 1012.83 1012.76 1012.69 1012.62 1012.52 1012.38 1012.20 1011.97 1011.70 1011.39 1011.07 1010.75 1010.45 1010.18 1009.97 1009.79 1009.66 1009.56 1009.47 1009.36 1009.23 1009.05 1008.81 1008.52 1008.18 1007.81 1007.42 1007.03 1006.66 1006.34 1006.05 1005.81 1005.61 1005.44 1005.29 1005.16 1005.03 1004.91 1004.81 1004.73 1004.69 1004.70
1013.31 1013.30 1013.30 1013.31 1013.30 1013.27 1013.19 1013.06 1012.88 1012.65 1012.38 1012.08 1011.79 1011.50 1011.24 1011.01 1010.82 1010.66 1010.52 1010.39 1010.24 1010.05 1009.83 1009.56 1009.24 1008.87 1008.48 1008.06 1007.65 1007.25 1006.86 1006.50 1006.17 1005.85 1005.54 1005.24 1004.95 1004.66 1004.39 1004.14 1003.94 1003.81 1003.76
1013.64 1013.69 1013.75 1013.82 1013.87 1013.90 1013.87 1013.79 1013.66 1013.47 1013.24 1012.98 1012.71 1012.44 1012.19 1011.97 1011.77 1011.58 1011.41 1011.24 1011.05 1010.82 1010.56 1010.26 1009.91 1009.53 1009.12 1008.69 1008.25 1007.82 1007.38 1006.95 1006.52 1006.09 1005.65 1005.20 1004.74 1004.29 1003.86 1003.46 1003.13 1002.88 1002.73
1013.87 1013.96 1014.07 1014.18 1014.27 1014.34 1014.35 1014.31 1014.22 1014.07 1013.88 1013.66 1013.42 1013.18 1012.95 1012.73 1012.52 1012.32 1012.12 1011.92 1011.69 1011.42 1011.13 1010.80 1010.42 1010.02 1009.60 1009.16 1008.70 1008.24 1007.77 1007.28 1006.78 1006.26 1005.71 1005.13 1004.54 1003.95 1003.37 1002.84 1002.37 1002.00 1001.74
1013.98 1014.09 1014.22 1014.35 1014.47 1014.55 1014.59 1014.58 1014.52 1014.41 1014.26 1014.07 1013.87 1013.66 1013.45 1013.24 1013.03 1012.82 1012.60 1012.36 1012.09 1011.78 1011.45 1011.08 1010.69 1010.26 1009.82 1009.37 1008.91 1008.44 1007.94 1007.43 1006.89 1006.31 1005.69 1005.04 1004.36 1003.66 1002.98 1002.33 1001.75 1001.26 1000.90
Thickness
5696 5690 5685 5680 5675 5670 5666 5662 5658 5655 5652 5649 5647 5646 5644 5643 5643 5643 5644 5645 5647 5648 5651 5655 5658 5663 5667 5671 5675 5679 5682 5685 5686 5692 5700 5705 5708 5711 5714 5715 5717 5718 5718
5697 5691 5686 5681 5676 5671 5667 5664 5660 5657 5654 5651 5648 5646 5645 5643 5643 5642 5642 5644 5645 5647 5649 5652 5656 5660 5664 5668 5671 5675 5678 5682 5684 5687 5692 5697 5701 5705 5708 5709 5711 5712 5712
5698 5692 5687 5682 5677 5673 5669 5665 5662 5658 5655 5652 5650 5647 5646 5644 5643 5643 5643 5643 5644 5646 5648 5650 5654 5657 5661 5665 5668 5672 5675 5679 5682 5684 5686 5691 5695 5698 5699 5701 5703 5704 5705
5698 5692 5687 5683 5679 5675 5671 5667 5663 5660 5657 5654 5651 5649 5648 5646 5645 5645 5644 5644 5644 5645 5647 5650 5653 5656 5659 5662 5666 5669 5672 5675 5677 5680 5682 5684 5688 5691 5693 5693 5694 5696 5697
5698 5693 5688 5685 5681 5676 5672 5668 5665 5661 5659 5656 5653 5651 5650 5648 5647 5646 5646 5645 5644 5645 5647 5649 5652 5656 5660 5663 5666 5667 5669 5671 5673 5675 5677 5679 5682 5684 5686 5688 5688 5688 5689
5698 5693 5690 5685 5681 5677 5673 5670 5666 5663 5660 5657 5655 5652 5650 5650 5650 5649 5647 5645 5645 5644 5646 5648 5652 5656 5660 5663 5666 5668 5670 5670 5671 5672 5674 5675 5678 5681 5682 5683 5683 5681 5681
5698 5694 5690 5686 5681 5678 5675 5671 5667 5663 5661 5658 5656 5654 5651 5651 5651 5650 5649 5646 5645 5645 5646 5648 5651 5655 5657 5659 5662 5665 5668 5670 5672 5672 5672 5673 5675 5678 5679 5678 5679 5679 5679
5698 5694 5690 5686 5682 5678 5675 5671 5668 5664 5661 5659 5657 5655 5652 5652 5652 5651 5650 5647 5646 5645 5646 5647 5648 5651 5655 5656 5658 5660 5662 5665 5668 5670 5671 5672 5674 5675 5676 5677 5676 5673 5672
5697 5693 5690 5686 5682 5678 5675 5672 5669 5666 5662 5660 5658 5656 5653 5652 5653 5652 5650 5647 5645 5645 5645 5647 5648 5649 5653 5655 5655 5656 5658 5660 5664 5666 5668 5669 5670 5671 5671 5669 5668 5667 5666
5696 5693 5690 5686 5682 5679 5676 5673 5670 5667 5664 5662 5659 5657 5654 5653 5653 5652 5650 5647 5644 5644 5645 5646 5647 5649 5651 5652 5652 5653 5654 5656 5658 5661 5662 5663 5664 5665 5666 5666 5666 5664 5662
5696 5693 5689 5686 5682 5679 5676 5673 5670 5667 5664 5662 5659 5657 5655 5654 5653 5652 5651 5647 5644 5643 5643 5644 5645 5647 5649 5650 5651 5651 5652 5654 5655 5655 5656 5657 5657 5659 5660 5661 5662 5662 5660
5694 5690 5687 5684 5682 5680 5675 5672 5670 5666 5663 5661 5659 5657 5656 5654 5653 5652 5651 5649 5646 5643 5643 5643 5644 5646 5647 5648 5648 5649 5650 5651 5650 5650 5651 5651 5652 5653 5655 5656 5657 5657 5659
5690 5686 5684 5681 5679 5676 5673 5670 5668 5665 5661 5659 5657 5655 5655 5654 5652 5652 5650 5649 5647 5644 5643 5643 5644 5644 5644 5644 5646 5646 5646 5646 5646 5646 5647 5648 5649 5649 5650 5650 5650 5651 5651
5685 5682 5679 5677 5674 5673 5670 5668 5665 5662 5660 5658 5656 5654 5653 5652 5651 5650 5648 5647 5646 5644 5643 5642 5643 5643 5642 5642 5642 5642 5642 5642 5642 5642 5643 5644 5644 5644 5644 5644 5644 5644 5644
5680 5677 5674 5672 5670 5668 5667 5665 5663 5661 5659 5656 5654 5653 5651 5650 5651 5650 5647 5645 5643 5642 5640 5640 5639 5638 5638 5638 5638 5638 5638 5638 5638 5638 5638 5639 5639 5639 5639 5639 5638 5638 5638
5673 5671 5668 5666 5665 5663 5661 5660 5660 5658 5658 5656 5654 5651 5650 5650 5650 5649 5647 5645 5643 5641 5637 5635 5635 5634 5634 5634 5634 5634 5634 5634 5634 5634 5634 5634 5634 5634 5634 5633 5633 5632 5632
5666 5664 5662 5660 5659 5657 5655 5653 5652 5653 5653 5651 5650 5648 5647 5647 5647 5645 5643 5641 5639 5637 5633 5632 5631 5631 5631 5630 5630 5630 5630 5630 5630 5629 5629 5629 5629 5629 5629 5628 5628 5627 5627
5660 5658 5656 5653 5651 5649 5648 5646 5644 5643 5642 5642 5643 5643 5642 5641 5640 5639 5637 5634 5631 5630 5627 5627 5627 5627 5627 5626 5626 5626 5626 5626 5625 5624 5624 5624 5624 5624 5623 5623 5623 5622 5622
5652 5649 5647 5645 5643 5641 5639 5638 5636 5635 5634 5633 5633 5634 5635 5634 5632 5630 5628 5624 5623 5622 5621 5621 5621 5621 5622 5622 5622 5622 5621 5621 5620 5619 5619 5619 5619 5618 5618 5618 5618 5618 5617
5642 5643 5639 5636 5633 5632 5630 5628 5626 5625 5624 5623 5623 5622 5623 5622 5620 5619 5617 5614 5613 5612 5612 5612 5613 5613 5614 5614 5614 5614 5614 5614 5614 5613 5613 5613 5613 5613 5613 5613 5613 5613 5612
5632 5630 5630 5625 5622 5620 5618 5616 5615 5614 5612 5611 5611 5611 5611 5610 5608 5607 5605 5604 5603 5603 5602 5603 5603 5603 5603 5604 5604 5605 5605 5606 5606 5606 5606 5607 5607 5607 5608 5608 5608 5608 5607
5621 5618 5616 5613 5610 5608 5606 5604 5603 5601 5600 5599 5599 5599 5599 5597 5595 5594 5593 5592 5591 5590 5590 5590 5590 5590 5590 5591 5592 5593 5593 5594 5595 5596 5598 5599 5599 5600 5601 5601 5601 5601 5601
5610 5607 5604 5601 5598 5597 5594 5592 5591 5589 5588 5587 5586 5585 5584 5582 5581 5579 5578 5577 5577 5577 5576 5575 5575 5575 5576 5576 5577 5577 5577 5578 5581 5583 5585 5588 5590 5592 5593 5594 5594 5595 5595
5598 5595 5591 5588 5586 5584 5581 5579 5578 5577 5575 5574 5573 5571 5569 5568 5566 5565 5564 5563 5562 5562 5561 5560 5560 5560 5560 5561 5561 5561 5562 5563 5565 5568 5571 5574 5578 5582 5584 5585 5587 5588 5589
5585 5582 5579 5576 5573 5571 5569 5567 5565 5563 5562 5560 5558 5556 5554 5553 5551 5550 5549 5547 5547 5546 5545 5544 5544 5544 5544 5544 5544 5545 5547 5548 5550 5552 5556 5560 5565 5569 5572 5575 5578 5580 5581
5573 5570 5567 5563 5561 5558 5556 5554 5552 5550 5548 5546 5544 5541 5540 5538 5536 5535 5533 5532 5530 5529 5528 5527 5527 5527 5527 5528 5529 5529 5531 5533 5535 5538 5541 5546 5550 5555 5559 5563 5567 5570 5572